Regional Weather Roundup
Issued by NWS

Home | Current Version | Previous Version | Text Only | Print | Product List | Glossary On
Versions: 1 2 3 4 5 6 7 8 9 10 11 12 13 14 15 16 17 18 19 20 21 22 23 24 25 26 27 28 29 30 31 32 33 34 35 36 37 38 39 40 41 42 43 44 45 46 47 48 49 50
000
ASUS44 KMEG 230310
RWRTN
TENNESSEE HOURLY STATE WEATHER ROUNDUP
NATIONAL WEATHER SERVICE MEMPHIS TN
1000 PM CDT FRI AUG 22 2014

TNZ002-004-019-021-049-052-054-088>092-230400-
WEST TENNESSEE

CITY           SKY/WX    TMP DP  RH WIND       PRES   REMARKS
MEMPHIS INTL   PTCLDY    85  73  67 SW6       30.00R HX  91
NWS MEMPHIS      N/A     85 N/A N/A MISG        N/A
JACKSON        CLEAR     78  75  90 S6        30.01R
DYERSBURG      PTCLDY    81  68  65 CALM      30.00R
UNION CITY     CLEAR     79  75  89 CALM      29.98R
PARIS          CLEAR     73  72  94 CALM      30.02R
HUNTINGDON     CLEAR     77  74  90 CALM      30.01R
LEXINGTON      CLEAR     75  73  94 CALM      30.01R
SAVANNAH       CLEAR     75  75 100 CALM      30.03R
$$

TNZ008-025-027-028-033-062-065-066-230400-
NORTH MIDDLE TENNESSEE

CITY           SKY/WX    TMP DP  RH WIND       PRES   REMARKS
NASHVILLE      CLEAR     80  73  79 CALM      30.03R
DICKSON        CLEAR     77  73  88 CALM      30.04R
PORTLAND       CLOUDY    81  72  74 SW3       30.02S
CLARKSVILLE    PTCLDY    81  74  79 CALM      30.01R
LEBANON        CLEAR     79  73  81 CALM      30.02R
SMYRNA         CLEAR     78  73  84 CALM      30.03R
MURFREESBORO   CLEAR     81  72  74 CALM      30.03R
COOKEVILLE     PTCLDY    75  75 100 CALM      30.06R
LIVINGSTON     CLEAR     77  71  81 SW3       30.07S
GALLATIN       CLEAR     79  75  87 CALM      30.04R
CROSSVILLE     CLEAR     73  70  90 CALM      30.11R
$$

TNZ061-075-076-078-094-096-097-230400-
SOUTH MIDDLE TENNESSEE

CITY           SKY/WX    TMP DP  RH WIND       PRES   REMARKS
LEWISBURG      CLEAR     77  72  84 CALM      30.04R
FAYETTEVILLE   CLEAR     77  66  69 CALM      30.06R
TULLAHOMA      CLEAR     75  70  83 CALM      30.08R
WINCHESTER     CLEAR     77  73  88 CALM      30.07R
MCMINNVILLE    CLEAR     75  75 100 CALM      30.06S
COLUMBIA       CLEAR     79  75  89 CALM      30.03R
SHELBYVILLE    CLEAR     75  75 100 CALM      30.06R
$$

TNZ017-018-042-046-047-230400-
NORTHEAST TENNESSEE

CITY           SKY/WX    TMP DP  RH WIND       PRES   REMARKS
TRI CITIES     CLOUDY    72  69  90 CALM      30.07S
ELIZABETHTON   MOCLDY    70  70 100 CALM      30.09S
$$

TNZ012-013-036-069-073-074-230400-
CENTRAL EAST TENNESSEE

CITY           SKY/WX    TMP DP  RH WIND       PRES   REMARKS
KNOXVILLE      MOCLDY    80  71  74 W3        30.04R
OAK RIDGE      PTCLDY    79  74  84 CALM      30.06R
GATLINBURG     MOCLDY    77  70  78 CALM      30.05R
MORRISTOWN     CLEAR     81  72  74 NW3       30.07S
$$

TNZ083-085-099-230400-
SOUTHEAST TENNESSEE

CITY           SKY/WX    TMP DP  RH WIND       PRES   REMARKS
CHATTANOOGA    PTCLDY    81  72  74 CALM      30.04R
$$

SKY/WX REPORTED AS FAIR MEANS FEW OR NO CLOUDS BELOW
12 THOUSAND FEET.



USA.gov is the U.S. government's official web portal to all federal, state and local government web resources and services.